Flag for France Weather past 2 weeks in Amsterdam Island, French Southern Territories, France

Now
44 °F

Quite cool.


Feels Like: 35 °F
Forecast: 49 / 54 °F
Wind: 23 mph from Southwest

Location: Martin De Vivies Ile Amsterdam

Current Time: Sep 19, 2014 at 7:32:14 PM

Latest Report: Sep 19, 2014 at 7:00 PM


Visibility: N/A

Pressure: 30.16 "Hg

Humidity: 62%

Dew point: 32 °F

Location of Amsterdam IslandLocation

Historic Weather in Amsterdam Island — Graph

°F

Amsterdam Island temperature yesterday

Maximum temperature yesterday: 57 °F (at 10:00 AM)
Minimum temperature yesterday: 44 °F (at 10:00 PM)
Average temperature yesterday: 52 °F

Past Weeks' High & Low Weather Summary

 TemperatureHumidityPressure
High59 °F (Sep 15, 2:00 PM)96% (Sep 17, 9:00 AM)30.33 "Hg (Sep 17, 9:00 AM)
Low41 °F (Sep 19, 7:00 AM)46% (Sep 12, 12:00 PM)29.41 "Hg (Sep 11, 9:00 PM)
Average52 °F79%29.91 "Hg
* Reported Sep 4 6:00 PM — Sep 19 6:00 PM, Amsterdam Island, Weather by CustomWeather, © 2014

Note: Actual official high and low records may vary slightly from our data, if they occured in-between our weather recording intervals... More about our weather records

Advertising

Amsterdam Island weather history for previous 24 hours

 ConditionsComfort  
Time TempWeatherWind HumidityBarometerVisibility
6:00 PM
Sep 19
44 °FQuite cool.28 mph52%30.13 "HgN/A
5:00 PM45 °FCool.22 mph55%30.09 "HgN/A
4:00 PM43 °FQuite cool.26 mph71%30.08 "HgN/A
3:00 PM46 °FCool.23 mph63%30.05 "HgN/A
2:00 PM48 °FCool.22 mph64%30.02 "HgN/A
1:00 PM44 °FQuite cool.18 mph75%30.00 "HgN/A
12:00 PM46 °FCool.22 mph55%29.99 "HgN/A
11:00 AM48 °FCool.21 mph51%29.96 "HgN/A
10:00 AM48 °FCool.26 mph61%29.95 "HgN/A
9:00 AM44 °FQuite cool.20 mph73%29.93 "HgN/A
8:00 AM46 °FCool.21 mph69%29.90 "HgN/A
7:00 AM41 °FQuite cool.31 mph78%29.88 "HgN/A
6:00 AM45 °FCool.22 mph61%29.84 "HgN/A
5:00 AM44 °FQuite cool.26 mph58%29.81 "HgN/A
4:00 AM42 °FQuite cool.21 mph73%29.79 "HgN/A
3:00 AM42 °FQuite cool.25 mph72%29.76 "HgN/A
2:00 AM44 °FQuite cool.28 mph68%29.74 "HgN/A
1:00 AM43 °FQuite cool.21 mph69%29.74 "HgN/A
12:00 AM46 °FCool.22 mph58%29.72 "HgN/A
11:00 PM
Sep 18
46 °FCool.23 mph58%29.69 "HgN/A
10:00 PM44 °FQuite cool.20 mph69%29.70 "HgN/A
9:00 PM45 °FQuite cool.18 mph72%29.68 "HgN/A
8:00 PM45 °FQuite cool.22 mph77%29.67 "HgN/A
7:00 PM48 °FCool.23 mph66%29.63 "HgN/A
Weather by CustomWeather, © 2014

See weather overviewHow to use our weather pages